Location: Cucq
(50.4773°N, 1.6202°E)
Time: 16:52:09
(UTC+00:00)

IRS-P3 - Pass Details

Date: 07 August 2020
Orbit: 814 x 819 km, 98.9° (Epoch: 24 September)

Event Time Altitude Azimuth Distance (km) Brightness Sun altitude
Rises 03:05:26 0° 12° (NNE) 3,363 8.4 -11.7°
Reaches altitude 10° 03:07:48 10° 9° (N) 2,426 7.5 -11.5°
Maximum altitude 03:13:05 61° 291° (WNW) 930 4.3 -10.9°
Enters shadow 03:17:55 12° 213° (SSW) 2,251 5.8 -10.3°
